OK2DDS-5 Weather Reports


time (UTC)temp
F
wind
direction
speed
knots
gust
knots
rain 1hr
in
rain 24hr
in
rain mn
in
humidity
%
barometer
mb
20260507020506 61 0 0.9 14.8 0.00 0.00 0.00 1001.0
20260507015006 61 0 1.7 10.4 0.00 0.00 0.00 1001.0
20260507013506 62 0 0.9 9.6 0.00 0.00 0.00 1001.0
20260507012006 62 0 1.7 13.0 0.00 0.00 0.00 1000.0
20260507010506 62 0 1.7 12.2 0.00 0.00 0.00 1000.0
20260507005006 62 0 1.7 15.6 0.00 0.00 0.00 1000.0
20260507003506 62 0 1.7 14.8 0.00 0.00 0.00 999.0
20260507002006 62 0 1.7 9.6 0.00 0.00 0.00 999.0
20260507000506 63 0 1.7 12.2 0.00 0.00 0.00 999.0
20260506235006 63 0 0.9 13.9 0.00 0.00 0.00 999.0
20260506233506 63 0 0.0 8.7 0.00 0.00 0.00 999.0
20260506232006 63 0 0.0 19.1 0.00 0.00 0.00 998.0
20260506230506 64 0 0.0 10.4 0.00 0.00 0.00 998.0
20260506225006 64 0 0.0 12.2 0.00 0.00 0.00 998.0
20260506223506 65 0 0.0 10.4 0.00 0.00 0.00 998.0
20260506222006 65 0 0.0 7.0 0.00 0.00 0.00 998.0
20260506220506 65 0 0.0 9.6 0.00 0.00 0.00 998.0
20260506215006 65 0 0.0 13.0 0.00 0.00 0.00 998.0
20260506213506 66 0 0.0 17.4 0.00 0.00 0.00 998.0
20260506212006 66 0 0.0 16.5 0.00 0.00 0.00 998.0
20260506210506 67 0 0.0 17.4 0.00 0.00 0.00 998.0
20260506205006 67 0 0.0 18.2 0.00 0.00 0.00 997.0
20260506203506 68 0 0.0 13.0 0.00 0.00 0.00 997.0
20260506202006 68 0 0.0 10.4 0.00 0.00 0.00 997.0
20260506200506 69 0 0.9 6.1 0.00 0.00 0.00 997.0
20260506195006 69 0 0.0 5.2 0.00 0.00 0.00 997.0
20260506193506 70 0 0.0 7.8 0.00 0.00 0.00 997.0
20260506192006 70 0 0.0 7.8 0.00 0.00 0.00 997.0
20260506190506 71 0 0.0 7.8 0.00 0.00 0.00 997.0
20260506185006 71 0 0.9 11.3 0.00 0.00 0.00 997.0
20260506183506 72 0 0.9 9.6 0.00 0.00 0.00 997.0
20260506182006 73 0 0.9 10.4 0.00 0.00 0.00 996.0
20260506180506 73 0 0.9 7.0 0.00 0.00 0.00 996.0
20260506175006 74 0 0.9 7.0 0.00 0.00 0.00 996.0
20260506173506 75 0 0.9 13.9 0.00 0.00 0.00 996.0
20260506172006 76 0 0.9 8.7 0.00 0.00 0.00 996.0
20260506170506 78 0 0.9 8.7 0.00 0.00 0.00 996.0
20260506165006 79 0 0.9 8.7 0.00 0.00 0.00 996.0
20260506163506 81 0 0.9 8.7 0.00 0.00 0.00 996.0
20260506162628 84 0 0.9 10.4 0.00 0.00 0.00 996.0
20260506162006 84 0 0.9 10.4 0.00 0.00 0.00 996.0
20260506160506 85 0 0.9 9.6 0.00 0.00 0.00 996.0
20260506155006 85 0 0.9 7.0 0.00 0.00 0.00 996.0
20260506153506 86 0 0.9 12.2 0.00 0.00 0.00 997.0
20260506152006 86 0 0.9 7.0 0.00 0.00 0.00 997.0
20260506150506 85 0 0.9 9.6 0.00 0.00 0.00 997.0
20260506145006 82 0 0.9 8.7 0.00 0.00 0.00 997.0
20260506143506 84 0 0.9 10.4 0.00 0.00 0.00 997.0
20260506142006 83 0 0.9 7.8 0.00 0.00 0.00 997.0
20260506140506 83 0 0.9 11.3 0.00 0.00 0.00 998.0
20260506135006 83 0 0.9 7.8 0.00 0.00 0.00 998.0
20260506133506 83 0 0.9 11.3 0.00 0.00 0.00 998.0
20260506132006 80 0 0.9 9.6 0.00 0.00 0.00 998.0
20260506130506 83 0 0.9 6.1 0.00 0.00 0.00 998.0
20260506125006 83 0 0.9 8.7 0.00 0.00 0.00 998.0
20260506123506 88 0 0.9 8.7 0.00 0.00 0.00 998.0
20260506122006 91 0 0.0 7.8 0.00 0.00 0.00 999.0
20260506120506 86 0 0.0 6.1 0.00 0.00 0.00 999.0
20260506115006 85 0 0.0 8.7 0.00 0.00 0.00 999.0
20260506113506 84 0 0.9 7.8 0.00 0.00 0.00 999.0
20260506112006 86 0 0.9 6.1 0.00 0.00 0.00 999.0
20260506110506 84 0 0.9 22.6 0.00 0.00 0.00 999.0
20260506105006 85 0 0.9 5.2 0.00 0.00 0.00 999.0
20260506103506 89 0 0.0 5.2 0.00 0.00 0.00 1000.0
20260506102006 88 0 0.0 6.1 0.00 0.00 0.00 1000.0
20260506100506 86 0 0.9 26.9 0.00 0.00 0.00 1000.0
20260506095006 82 0 0.9 7.0 0.00 0.00 0.00 1000.0
20260506093506 76 0 0.9 7.8 0.00 0.00 0.00 1000.0
20260506092006 75 0 0.9 7.8 0.00 0.00 0.00 1000.0
20260506090506 74 0 0.9 8.7 0.00 0.00 0.00 1000.0
20260506085006 73 0 0.9 10.4 0.00 0.00 0.00 1000.0
20260506083506 72 0 0.9 9.6 0.00 0.00 0.00 1001.0
20260506082006 71 0 0.9 6.1 0.00 0.00 0.00 1001.0
20260506080506 70 0 0.0 7.0 0.00 0.00 0.00 1001.0
20260506073506 69 0 0.9 8.7 0.00 0.00 0.00 1001.0
20260506072006 68 0 0.9 12.2 0.00 0.00 0.00 1001.0
20260506070506 67 0 0.9 10.4 0.00 0.00 0.00 1001.0
20260506062006 64 0 0.0 7.8 0.00 0.00 0.00 1001.0
20260506050505 58 0 0.9 14.8 0.00 0.00 0.00 1001.0
20260506045005 57 0 0.9 14.8 0.00 0.00 0.00 1000.0
20260506043505 57 0 0.9 22.6 0.00 0.00 0.00 1000.0
20260506042005 57 0 0.9 20.9 0.00 0.00 0.00 1000.0
20260506040505 57 0 0.9 35.6 0.00 0.00 0.00 1000.0
20260506035005 58 0 0.9 13.0 0.00 0.00 0.00 1000.0
20260506033505 58 0 0.9 20.0 0.00 0.00 0.00 1000.0
20260506032005 58 0 0.0 22.6 0.00 0.00 0.00 1000.0
20260506030505 58 0 0.0 33.9 0.00 0.00 0.00 1000.0
20260506025005 59 0 0.0 32.2 0.00 0.00 0.00 999.0
20260506023505 59 0 0.0 13.9 0.00 0.00 0.00 999.0
20260506022005 59 0 0.0 32.2 0.00 0.00 0.00 1000.0